This is the latest recevied weather packets stored in our database for station/object KE5VT. If no packets are shown the sender has not sent any weather packets the latest 10 day(s).
| Time | Temp. | Humidity | Pressure | Rain* | Wind** | Luminosity | Snow |
|---|---|---|---|---|---|---|---|
| 1777681262 | 15° C | 79% | 1008.9 hPa | 0 mm | - | 0 W/m² | - |
| 1777680960 | 15° C | 79% | 1008.6 hPa | 0 mm | - | 0 W/m² | - |
| 1777680657 | 15° C | 78% | 1008.3 hPa | 0 mm | - | 1 W/m² | - |
| 1777680355 | 15° C | 77% | 1008.3 hPa | 0 mm | - | 2 W/m² | - |
| 1777680052 | 15° C | 78% | 1008.1 hPa | 0 mm | - | 3 W/m² | - |
| 1777679747 | 15.56° C | 77% | 1008.3 hPa | 0 mm | - | 3 W/m² | - |
| 1777679444 | 15.56° C | 76% | 1008.3 hPa | 0 mm | - | 5 W/m² | - |
| 1777679139 | 16.11° C | 75% | 1008.1 hPa | 0 mm | - | 9 W/m² | - |
| 1777678838 | 16.11° C | 74% | 1008.1 hPa | 0 mm | - | 13 W/m² | - |
| 1777678535 | 16.11° C | 74% | 1008 hPa | 0 mm | - | 20 W/m² | - |
| 1777678232 | 16.11° C | 72% | 1008 hPa | 0 mm | - | 30 W/m² | - |
| 1777677928 | 16.11° C | 72% | 1007.8 hPa | 0 mm | - | 42 W/m² | - |
| 1777677626 | 16.11° C | 74% | 1008 hPa | 0 mm | - | 36 W/m² | - |
| 1777677324 | 16.11° C | 73% | 1008 hPa | 0 mm | - | 32 W/m² | - |
| 1777677022 | 16.67° C | 73% | 1007.9 hPa | 0 mm | - | 34 W/m² | - |
| 1777676720 | 16.67° C | 73% | 1008 hPa | 0 mm | - | 37 W/m² | - |
| 1777676417 | 16.67° C | 72% | 1008.3 hPa | 0 mm | - | 45 W/m² | - |
| 1777676115 | 16.67° C | 71% | 1008.2 hPa | 0 mm | - | 49 W/m² | - |
| 1777675811 | 16.67° C | 71% | 1008.2 hPa | 0 mm | - | 60 W/m² | - |
| 1777675508 | 16.67° C | 70% | 1008.1 hPa | 0 mm | - | 48 W/m² | - |
| 1777675205 | 16.67° C | 71% | 1008.1 hPa | 0 mm | - | 58 W/m² | - |
| 1777674901 | 17.22° C | 70% | 1008.3 hPa | 0 mm | - | 74 W/m² | - |
| 1777674598 | 17.22° C | 68% | 1008.4 hPa | 0 mm | - | 70 W/m² | - |
| 1777674295 | 17.22° C | 67% | 1008.2 hPa | 0 mm | - | 68 W/m² | - |
| 1777673991 | 17.22° C | 69% | 1008.3 hPa | 0 mm | - | 75 W/m² | - |
* Rain latest hour (hover to see other rain measurements)
** Current wind speed in m/s (hover to see current wind gust speed)